Terminal Aerodrome Forecast
Issued by NWS Shreveport, LA

Home | Current Version | Previous Version | Text Only | Print | Product List | Glossary On
Versions: 1 2 3 4 5 6 7 8 9 10 11 12 13 14 15 16 17 18
000
FTUS44 KSHV 232300
TAFTXK
TAF
KTXK 232335Z 2400/2424 35010KT P6SM SCT035 OVC110
     FM240200 36007KT P6SM FEW050 SCT250
     FM240900 VRB03KT 6SM BR SCT030 SCT250
     FM241200 32002KT 4SM BR BKN030
     FM241600 03005KT P6SM BKN040=

USA.gov is the U.S. government's official web portal to all federal, state and local government web resources and services.